Theta_e
304 304 305 305 304 304 304 304 304 303 302 302 301 301 301 300 299 298 297 296 295 294 293 292 291 290 291 292 290 288 287 287 287 287 286 284 282 282 281 281 281 281 281
304 305 305 305 304 304 304 304 303 301 300 300 300 300 300 299 298 297 296 295 294 293 291 290 291 292 290 288 286 285 285 284 285 285 284 282 281 281 281 281 280 280 280
305 305 305 305 303 303 304 302 300 299 299 299 299 299 299 298 297 296 295 293 292 291 290 290 291 290 289 287 286 285 285 283 282 282 282 281 281 280 280 280 279 279 280
306 306 305 303 302 303 302 300 299 299 299 299 299 298 298 297 296 295 293 292 290 289 289 289 288 287 285 284 284 283 283 283 282 281 281 280 280 280 280 280 280 279 279
306 304 302 302 302 302 300 299 299 298 298 298 297 297 297 296 295 294 292 291 289 288 288 287 286 285 283 282 282 282 282 282 281 280 280 280 280 280 279 278 278 278 278
303 302 302 301 301 300 299 298 298 297 297 297 296 296 296 295 293 292 291 289 288 288 286 286 285 283 281 281 281 281 281 280 280 280 280 279 279 278 278 277 277 277 277
303 301 301 301 300 298 298 298 297 297 296 296 296 295 295 293 292 291 290 288 288 287 287 286 284 282 283 281 281 280 280 280 279 279 279 278 278 277 277 277 276 275 274
304 302 301 301 299 298 298 298 298 297 296 295 295 295 294 293 292 290 289 287 287 287 285 284 283 282 282 281 280 279 279 279 278 278 278 277 277 277 276 275 275 274 273
306 303 301 300 298 298 298 298 297 297 296 295 295 294 294 292 291 289 288 287 286 285 285 283 282 282 282 281 279 279 278 278 278 278 277 277 276 276 275 274 274 274 274
307 304 301 300 298 298 298 297 297 297 296 295 294 293 293 291 289 288 287 286 286 286 284 282 283 283 279 279 278 278 278 277 277 277 277 276 275 275 274 274 273 272 272
306 302 300 299 298 298 297 297 297 296 296 295 294 293 292 290 288 288 286 285 286 285 283 284 284 281 278 278 278 278 277 277 277 276 276 275 275 274 274 273 272 271 271
304 301 300 298 298 297 297 297 297 296 295 294 293 292 291 289 288 286 285 285 285 284 284 283 282 278 278 278 278 277 277 276 276 276 275 275 274 274 273 272 271 271 270
301 300 300 298 297 297 297 297 296 295 294 294 293 292 290 289 287 286 284 283 284 284 284 283 279 277 278 278 277 277 276 276 276 275 275 274 274 273 273 272 271 270 269
300 300 299 298 297 297 297 296 295 294 294 293 293 291 291 289 288 287 285 284 283 283 283 282 278 277 277 277 277 277 276 276 275 275 274 274 273 273 272 271 271 270 270
299 298 298 298 297 297 297 295 294 293 293 292 292 291 290 289 290 288 286 285 284 283 283 279 278 278 277 277 277 276 276 275 275 274 274 273 273 272 272 271 270 270 269
298 298 297 297 297 296 295 294 293 293 292 292 290 289 289 288 287 286 285 284 282 282 282 278 278 277 277 277 276 276 276 275 274 274 274 273 273 272 272 270 270 269 269
298 297 296 296 296 295 294 293 293 292 291 290 289 289 288 288 286 285 284 283 282 282 282 278 278 277 277 276 276 276 275 275 274 274 273 273 273 272 271 270 269 268 268
295 295 295 294 294 294 294 293 292 291 290 290 289 288 288 286 285 284 283 282 281 281 283 279 278 277 277 276 276 276 275 275 274 274 273 273 273 272 271 270 269 268 267
294 294 294 294 294 293 293 292 291 290 289 288 287 286 285 284 283 283 280 281 283 283 283 279 278 277 277 276 276 276 275 275 274 274 273 273 273 272 271 270 269 267 266
295 295 294 294 294 293 292 291 291 290 288 287 287 286 285 283 282 280 280 280 282 283 282 278 277 277 277 277 276 276 276 275 274 274 273 273 272 272 271 270 269 268 267
294 294 294 293 293 292 291 290 289 289 288 287 287 286 286 284 283 282 281 282 283 283 280 278 278 277 277 277 276 276 276 275 274 274 273 273 272 271 271 270 269 268 267
293 293 293 293 292 291 291 290 288 287 286 286 286 285 284 283 283 282 282 283 283 283 279 278 278 277 277 276 276 275 275 275 274 274 273 272 272 271 271 270 269 268 266
293 293 292 292 291 291 290 289 288 286 285 285 285 284 283 282 283 283 283 282 282 282 278 278 277 277 277 276 275 275 275 275 274 274 273 272 272 271 271 270 269 268 266
293 292 291 291 290 289 288 287 286 285 285 285 284 284 283 282 283 283 283 283 282 280 278 277 277 277 276 276 276 276 275 275 275 274 273 273 272 271 271 270 269 268 266
291 291 291 290 289 288 287 286 285 285 284 284 284 284 283 283 283 283 283 283 282 278 278 277 277 277 276 276 276 275 275 275 275 274 273 273 272 272 271 270 269 268 266
290 289 289 289 288 287 286 285 285 284 284 284 284 284 283 283 283 283 283 283 281 278 278 277 277 277 276 276 276 275 275 275 275 274 274 273 272 271 271 270 269 268 266
Wind_Speed
16 14 10 7 4 3 3 3 3 5 7 9 11 12 12 13 13 13 13 13 12 12 11 11 10 10 11 11 11 11 11 11 12 10 10 8 8 8 9 10 11 11 12
14 11 8 5 4 5 5 3 5 7 10 11 12 13 13 14 14 14 14 14 13 13 12 11 11 10 10 10 10 8 8 7 8 9 8 7 7 8 10 11 11 12 11
12 9 8 8 8 7 4 4 6 8 11 13 14 14 15 15 16 15 15 14 13 13 12 12 12 12 11 10 10 9 9 7 6 7 7 7 8 9 10 11 12 12 11
12 11 11 11 9 7 6 6 8 11 14 15 16 16 16 16 16 16 15 14 14 13 12 12 12 12 11 9 8 8 6 5 6 7 6 7 9 12 14 14 13 14 13
14 14 13 12 10 9 8 8 10 14 16 17 18 18 17 17 16 16 15 15 14 13 13 12 12 11 11 9 8 7 7 5 5 5 7 8 8 13 17 19 19 18 16
15 14 14 13 12 11 9 10 13 16 17 18 18 18 17 16 16 16 16 15 15 14 13 12 11 10 7 7 7 7 7 6 6 6 7 9 11 12 15 19 20 21 19
16 17 17 15 14 12 12 13 13 16 18 18 17 17 16 16 17 17 16 17 16 15 14 12 9 7 7 8 8 7 7 6 6 7 9 11 12 14 16 17 18 20 21
20 19 18 17 16 15 14 15 16 17 18 18 18 18 18 17 17 17 17 17 16 16 14 11 9 7 7 8 8 8 7 7 6 8 9 12 14 15 15 17 19 20 20
24 23 21 20 20 19 17 17 17 19 19 19 19 20 19 18 17 17 17 16 16 15 16 12 10 8 7 11 9 8 8 7 8 9 11 13 14 16 17 18 18 20 21
25 24 23 22 22 22 19 19 19 20 21 22 22 21 20 19 18 16 17 17 15 16 15 14 11 8 11 11 9 8 9 9 9 11 12 13 15 16 18 19 20 20 22
23 24 25 25 25 24 21 21 21 22 23 23 23 23 21 20 17 18 19 17 15 15 15 14 11 9 11 10 9 10 9 10 11 12 12 14 15 16 17 18 18 19 20
23 27 28 29 28 25 22 21 22 24 24 25 25 25 23 21 18 20 19 16 14 14 14 14 12 14 11 10 10 10 10 11 12 12 13 15 16 17 18 18 18 18 19
25 28 30 29 26 24 24 24 25 25 26 27 27 28 25 22 20 20 20 19 16 14 14 14 14 15 13 11 11 11 11 12 12 13 14 15 17 18 19 18 18 18 18
26 28 28 27 26 26 26 26 28 28 29 29 29 30 26 24 22 22 20 20 19 18 16 16 16 17 14 13 12 12 12 12 12 14 14 15 17 19 20 19 19 18 17
26 26 26 28 28 28 29 28 29 29 29 28 29 27 26 26 22 20 19 19 20 18 17 19 19 15 14 14 13 13 14 13 13 14 15 16 18 20 20 20 20 20 21
25 26 28 29 29 30 30 31 32 31 30 28 28 28 26 24 22 21 20 20 21 23 21 21 19 16 16 14 13 14 14 14 13 14 15 16 18 20 19 19 20 21 22
28 28 29 30 32 33 33 33 33 31 30 29 29 27 26 23 21 21 21 21 23 25 24 21 19 18 15 15 14 15 14 14 14 15 16 17 19 20 20 19 20 20 21
31 31 32 33 33 33 33 32 31 30 30 30 26 25 25 21 22 21 21 22 25 28 26 22 20 18 16 15 14 15 14 14 14 15 16 17 19 20 20 20 20 21 21
29 32 32 31 31 30 29 28 28 28 28 28 26 24 26 24 21 21 24 28 27 27 22 18 19 19 17 15 15 15 14 14 15 16 16 18 19 20 20 20 20 20 22
27 27 27 27 26 26 26 26 26 27 27 27 28 27 29 27 26 28 31 34 30 26 23 20 19 18 16 15 16 15 14 14 15 16 16 18 19 19 19 19 19 20 21
23 23 24 23 23 24 24 25 25 25 26 28 28 27 28 30 29 30 32 34 30 26 22 20 19 17 16 16 16 15 15 15 15 15 17 18 19 18 19 19 19 20 22
18 19 20 20 20 21 21 23 23 24 26 27 26 25 26 29 30 31 32 32 28 23 19 18 18 19 17 18 17 17 16 16 15 17 18 18 18 17 19 19 19 20 21
14 15 16 18 19 20 21 22 23 24 26 25 25 25 27 32 31 31 30 29 28 24 22 21 20 19 19 19 18 18 17 16 17 19 18 17 17 17 19 18 19 19 19
15 15 16 17 19 20 21 22 22 23 25 25 25 26 27 31 31 29 28 27 27 25 23 23 22 21 20 20 19 18 17 17 19 19 18 17 17 18 18 18 18 18 18
16 18 19 19 20 20 20 21 22 23 25 25 25 26 27 29 30 28 27 27 25 24 23 23 23 22 21 21 19 18 18 19 19 19 18 17 17 17 17 17 17 17 16
18 19 20 20 21 21 21 22 23 24 25 26 26 26 27 28 29 29 28 28 26 25 24 24 23 22 22 21 20 19 19 20 19 18 19 18 17 17 16 16 17 16 15
Wind_Direction
183 183 184 192 197 212 231 251 295 319 326 325 324 323 321 319 315 313 309 305 302 298 293 289 286 284 285 285 282 274 266 254 247 227 235 268 297 310 320 324 330 334 335
188 191 200 213 237 242 250 273 310 315 317 316 313 310 310 307 304 303 302 301 298 295 289 283 280 283 285 285 282 277 268 254 249 249 258 280 307 317 324 328 334 341 338
200 212 226 242 246 249 252 271 293 303 305 305 307 307 306 304 303 304 302 300 297 292 288 289 290 290 285 274 261 254 270 289 282 272 275 298 314 320 323 330 339 346 346
222 233 241 246 245 243 244 266 286 299 305 307 308 305 303 302 300 301 299 297 295 291 289 288 287 287 281 275 273 274 268 259 274 284 295 311 325 327 329 330 341 352 351
237 243 246 244 240 237 246 268 290 300 300 300 299 299 299 298 299 299 296 292 287 287 285 283 282 284 282 283 286 287 283 278 277 295 308 314 328 330 337 343 344 345 344
245 249 243 237 232 236 251 272 285 292 293 293 294 293 295 297 295 294 289 285 282 279 280 285 289 290 285 292 280 278 283 292 300 300 313 318 333 340 341 338 338 340 348
246 242 240 233 233 240 250 266 280 290 293 291 290 289 293 290 289 288 283 279 277 279 282 283 278 276 278 275 275 275 279 286 297 314 324 324 332 340 340 332 332 337 338
249 246 240 234 237 240 255 266 277 286 289 287 287 287 286 285 284 281 280 277 278 280 281 280 273 260 266 271 271 273 283 292 310 319 321 326 334 333 331 331 333 334 331
253 250 242 237 237 242 256 267 274 279 286 287 282 280 281 281 279 276 274 270 270 276 276 271 262 253 259 265 268 274 281 294 306 313 319 328 329 326 331 330 325 325 333
254 250 242 239 239 246 260 268 275 281 282 279 276 276 277 275 276 275 272 263 267 270 267 266 249 240 257 260 268 278 283 291 303 313 320 324 323 326 328 326 326 330 334
250 244 238 238 240 247 257 267 275 276 275 275 275 272 270 270 270 272 263 260 271 268 261 260 244 249 251 257 265 274 281 290 299 307 316 317 322 326 324 323 324 326 328
241 236 237 239 243 250 261 268 273 273 273 273 270 267 265 265 268 265 260 266 270 265 260 247 240 257 257 257 265 276 281 288 297 305 310 317 324 324 322 322 321 324 325
242 240 240 242 247 255 264 270 271 271 270 269 265 263 261 261 259 259 254 261 270 259 251 239 244 252 260 262 265 276 282 288 296 303 309 317 321 322 320 319 319 321 324
253 249 246 248 255 261 266 272 274 271 269 263 260 259 259 257 256 256 250 251 256 253 242 237 243 246 255 258 270 279 283 290 298 303 308 316 321 321 319 317 317 319 319
259 257 257 258 261 266 272 276 278 274 270 267 265 262 259 255 268 262 253 250 251 249 240 243 245 245 248 258 270 278 284 290 295 300 308 316 319 318 318 317 318 321 324
267 266 265 266 267 271 275 276 275 273 267 261 256 252 254 254 251 244 240 238 237 235 238 242 245 244 250 259 269 276 283 286 293 299 307 313 316 315 316 315 317 322 323
269 268 268 268 270 272 275 275 274 269 263 258 255 254 250 254 244 242 238 234 233 236 236 238 241 243 250 257 267 275 279 284 292 299 305 310 314 315 317 317 317 319 320
273 270 269 270 272 274 273 272 269 265 260 258 251 246 250 242 235 233 231 231 223 233 238 237 241 243 247 256 265 273 277 286 293 298 301 307 312 314 317 316 316 317 321
270 272 273 274 273 272 268 266 265 262 259 255 246 241 244 241 231 228 224 232 235 235 241 238 241 242 244 253 264 272 281 290 294 295 297 303 308 312 315 313 314 319 323
272 271 272 272 269 265 265 264 262 259 254 250 246 243 239 229 222 216 214 228 238 240 244 242 240 238 242 254 263 272 284 289 289 291 294 298 303 310 312 313 314 317 320
271 271 269 266 265 265 264 263 263 259 254 251 251 247 244 238 233 227 226 234 237 239 241 241 237 238 249 257 264 274 282 286 288 291 292 293 299 308 311 314 315 317 318
272 271 272 269 266 264 267 265 261 256 253 252 251 247 241 238 236 236 237 240 241 244 243 240 241 246 254 260 266 273 281 287 290 288 286 289 296 305 311 315 314 315 316
277 273 270 269 270 271 267 263 256 252 251 250 247 243 235 236 238 237 238 238 242 244 243 243 247 250 255 260 266 272 280 286 283 282 285 288 296 304 309 313 310 311 314
284 277 271 270 271 270 265 261 257 252 251 249 246 242 237 237 242 240 238 236 239 243 244 245 247 250 254 259 264 270 276 279 279 282 284 289 294 299 305 309 307 309 314
289 284 280 278 275 273 268 263 258 254 252 250 246 243 240 239 243 239 234 236 240 240 241 243 246 250 254 258 262 267 271 274 277 280 285 287 290 293 300 305 305 309 312
293 286 282 278 275 272 270 266 262 258 255 254 251 248 245 243 243 240 234 235 237 237 240 243 246 250 253 256 260 263 267 271 274 277 281 285 287 289 295 301 304 308 311